Вернуться в каталог

STARLINK-38274

АктивенСвязьSSO
NORAD 100380·PAYLOAD·🇺🇸 United States

Запущен Aug 19, 2026 с Vandenberg Space Force Base

Loading…

Ближайшие Пролёты (ближайшие 24 часа)

TLE

СвежийSource: Space-Track

Эпоха: Sep 14, 2026, 07:59 UTC

1 A0380U 26190K   26257.33267616  .00165743  00000-0  10889-2 0  9999
2 A0380  97.2837 111.3679 0002012  78.3173 281.8318 15.75226703  5409

Отслеживайте STARLINK-38274 в реальном времени с AllMySat

Download on the App Store